EW8332 Weather Reports


time (UTC)temp
F
wind
direction
speed
knots
gust
knots
rain 1hr
in
rain 24hr
in
rain mn
in
humidity
%
barometer
mb
20260506153703 76 82 0.9 1.7 0.00 0.00 0.00 89 1012.6
20260506153204 76 53 0.0 2.6 0.00 0.00 0.00 89 1012.5
20260506150704 75 230 0.9 1.7 0.00 0.00 0.00 90 1011.5
20260506150204 75 111 0.0 2.6 0.00 0.00 0.00 90 1011.5
20260506143704 74 70 0.0 2.6 0.00 0.00 0.00 91 1011.3
20260506143203 74 153 0.9 2.6 0.00 0.00 0.00 91 1011.2
20260506140704 74 24 0.0 0.0 0.00 0.00 0.00 92 1011.4
20260506140204 74 24 0.0 5.2 0.00 0.00 0.00 92 1011.3
20260506130704 74 76 0.9 1.7 0.00 0.00 0.00 92 1010.1
20260506130204 74 80 0.9 2.6 0.00 0.00 0.00 92 1010.1
20260506123703 74 138 0.9 1.7 0.00 0.00 0.00 92 1009.9
20260506123204 74 141 0.9 1.7 0.00 0.00 0.00 92 1010.0
20260506120704 74 170 0.0 0.0 0.00 0.00 0.00 92 1010.0
20260506120204 74 170 0.0 1.7 0.00 0.00 0.00 92 1009.9
20260506113704 74 170 0.0 1.7 0.00 0.00 0.00 92 1009.8
20260506110704 74 168 1.7 2.6 0.00 0.00 0.00 91 1009.7
20260506110204 74 173 1.7 4.3 0.00 0.00 0.00 91 1009.6
20260506103703 74 170 1.7 6.1 0.00 0.00 0.00 91 1009.5
20260506100704 74 169 2.6 5.2 0.00 0.00 0.00 91 1009.4
20260506100204 74 172 2.6 6.1 0.00 0.00 0.00 90 1009.4
20260506093704 74 162 2.6 6.1 0.00 0.00 0.00 91 1009.2
20260506093204 74 185 3.5 8.7 0.00 0.00 0.00 90 1009.0
20260506090704 74 160 2.6 6.1 0.00 0.00 0.00 90 1009.1
20260506083704 74 169 2.6 6.1 0.00 0.00 0.00 90 1009.0
20260506070704 75 178 3.5 10.4 0.00 0.00 0.00 90 1009.5
20260506070203 74 161 4.3 12.2 0.00 0.00 0.00 90 1009.5
20260506060704 75 163 4.3 7.8 0.00 0.00 0.00 89 1009.7
20260506060204 75 168 2.6 10.4 0.00 0.00 0.00 89 1009.7
20260506050705 75 153 3.5 7.0 0.00 0.00 0.00 88 1009.8
20260506043704 76 160 2.6 7.8 0.00 0.00 0.00 89 1009.7
20260506043203 76 166 4.3 10.4 0.00 0.00 0.00 89 1009.7
20260506040704 76 156 4.3 10.4 0.00 0.00 0.00 88 1009.4
20260506040204 76 158 3.5 7.8 0.00 0.00 0.00 88 1009.3
20260506033204 76 150 1.7 6.1 0.00 0.00 0.00 89 1009.0
20260506030704 76 128 1.7 4.3 0.00 0.00 0.00 88 1008.6
20260506030204 76 144 1.7 4.3 0.00 0.00 0.00 88 1008.5
20260506023704 76 150 1.7 2.6 0.00 0.00 0.00 86 1008.3
20260506023204 76 136 1.7 5.2 0.00 0.00 0.00 85 1008.3
20260506020204 77 150 0.9 2.6 0.00 0.00 0.00 84 1007.6
20260506013704 77 155 0.9 2.6 0.00 0.00 0.00 82 1007.3
20260506013204 78 136 0.9 2.6 0.00 0.00 0.00 82 1007.3
20260506010703 79 148 0.9 1.7 0.00 0.00 0.00 79 1007.3
20260506010204 80 148 0.0 4.3 0.00 0.00 0.00 78 1007.3
20260506003704 81 143 2.6 6.1 0.00 0.00 0.00 75 1007.2
20260506003204 81 148 1.7 7.0 0.00 0.00 0.00 75 1007.1
20260506000704 82 143 1.7 6.1 0.00 0.00 0.00 74 1007.0
20260505233703 82 161 2.6 5.2 0.00 0.00 0.00 73 1006.9
20260505233204 82 146 1.7 7.0 0.00 0.00 0.00 72 1006.9
20260505230703 83 174 4.3 8.7 0.00 0.00 0.00 70 1006.9
20260505223703 83 189 2.6 7.0 0.00 0.00 0.00 71 1006.7
20260505223203 83 158 3.5 8.7 0.00 0.00 0.00 71 1006.7
20260505220205 83 144 4.3 10.4 0.00 0.00 0.00 70 1006.8
20260505213204 84 153 4.3 10.4 0.00 0.00 0.00 69 1007.2
20260505210704 84 190 3.5 10.4 0.00 0.00 0.00 69 1007.5
20260505210203 84 181 4.3 8.7 0.00 0.00 0.00 68 1007.7
20260505203704 84 154 4.3 11.3 0.00 0.00 0.00 70 1008.0
20260505203203 84 159 2.6 10.4 0.00 0.00 0.00 70 1008.0
20260505200704 82 179 2.6 7.0 0.00 0.00 0.00 72 1008.4
20260505200204 83 169 6.1 10.4 0.00 0.00 0.00 70 1008.4
20260505193703 81 177 4.3 7.8 0.00 0.00 0.00 73 1008.7
20260505193203 81 194 4.3 10.4 0.00 0.00 0.00 73 1008.8
20260505190704 81 171 4.3 8.7 0.00 0.00 0.00 74 1009.0
20260505190204 81 152 4.3 11.3 0.00 0.00 0.00 74 1009.0
20260505183703 81 163 4.3 6.1 0.00 0.00 0.00 76 1009.2
20260505183203 80 189 3.5 7.8 0.00 0.00 0.00 76 1009.3
20260505180703 78 176 4.3 7.8 0.00 0.00 0.00 79 1009.5
20260505173704 76 225 4.3 7.8 0.00 0.00 0.00 82 1010.0
20260505173205 76 173 3.5 7.8 0.00 0.00 0.00 82 1009.9
20260505170704 74 182 2.6 7.8 0.00 0.00 0.00 86 1010.0
20260505170203 74 189 4.3 10.4 0.00 0.00 0.00 87 1010.0
20260505163203 73 198 3.5 10.4 0.00 0.00 0.00 88 1010.2
20260505160704 72 177 2.6 7.0 0.00 0.00 0.00 89 1009.9
20260505160203 72 171 3.5 10.4 0.00 0.00 0.00 89 1009.9